Location: Meeteetse
(44.0232°N, 108.9875°W)
Time: 14:32:50

N. Korean satellite - Visible Passes

Search period start: 21 March 2018 00:00
Search period end: 31 March 2018 00:00
Orbit: 460 x 512 km, 97.2° (Epoch: 21 March)

Date Brightness Start Highest point End Pass type
(mag) Time Alt. Az. Time Alt. Az. Time Alt. Az.
22 Mar 10.5 20:24:09 10° WSW 20:24:58 11° W 20:25:47 10° WNW visible
23 Mar 9.8 19:58:09 10° SW 20:00:55 20° W 20:03:44 10° NW visible
26 Mar 10.4 20:21:56 10° WSW 20:23:06 11° W 20:24:16 10° WNW visible
30 Mar 10.3 20:19:45 10° WSW 20:21:10 12° W 20:22:35 10° WNW visible
